#datetime,building,power
2022-04-17T00:00:00,pkn,1.20
2022-04-17T00:01:00,pkn,1.20
2022-04-17T00:03:00,pkn,1.20
2022-04-17T00:04:00,pkn,1.20
2022-04-17T00:06:00,pkn,6.00
2022-04-17T00:07:00,pkn,3.60
2022-04-17T00:08:00,pkn,2.40
2022-04-17T00:10:00,pkn,4.80
2022-04-17T00:12:00,pkn,2.40
2022-04-17T00:14:00,pkn,2.40
2022-04-17T00:16:00,pkn,4.80
2022-04-17T00:18:00,pkn,10.80
2022-04-17T00:20:00,pkn,9.60
2022-04-17T00:22:00,pkn,10.80
2022-04-17T00:23:00,pkn,4.80
2022-04-17T00:25:00,pkn,9.60
2022-04-17T00:27:00,pkn,9.60
2022-04-17T00:29:00,pkn,2.40
2022-04-17T00:31:00,pkn,2.40
2022-04-17T00:33:00,pkn,1.20
2022-04-17T00:34:00,pkn,1.20
2022-04-17T00:36:00,pkn,2.40
2022-04-17T00:38:00,pkn,1.20
2022-04-17T00:40:00,pkn,2.40
2022-04-17T00:42:00,pkn,1.20
2022-04-17T00:43:00,pkn,1.20
2022-04-17T00:45:00,pkn,1.20
2022-04-17T00:46:00,pkn,1.20
2022-04-17T00:48:00,pkn,1.20
2022-04-17T00:50:00,pkn,3.60
2022-04-17T00:51:00,pkn,6.00
2022-04-17T00:53:00,pkn,9.60
2022-04-17T00:54:00,pkn,4.80
2022-04-17T00:56:00,pkn,9.60
2022-04-17T00:58:00,pkn,10.80
2022-04-17T01:00:00,pkn,9.60
2022-04-17T01:01:00,pkn,4.80
2022-04-17T01:03:00,pkn,10.80
2022-04-17T01:05:00,pkn,9.60
2022-04-17T01:06:00,pkn,4.80
2022-04-17T01:08:00,pkn,10.80
2022-04-17T01:09:00,pkn,4.80
2022-04-17T01:11:00,pkn,9.60
2022-04-17T01:13:00,pkn,9.60
2022-04-17T01:14:00,pkn,4.80
2022-04-17T01:16:00,pkn,9.60
2022-04-17T01:17:00,pkn,4.80
2022-04-17T01:19:00,pkn,9.60
2022-04-17T01:21:00,pkn,10.80
2022-04-17T01:23:00,pkn,9.60
2022-04-17T01:25:00,pkn,9.60
2022-04-17T01:26:00,pkn,4.80
2022-04-17T01:28:00,pkn,9.60
2022-04-17T01:29:00,pkn,4.80
2022-04-17T01:31:00,pkn,9.60
2022-04-17T01:32:00,pkn,4.80
2022-04-17T01:34:00,pkn,9.60
2022-04-17T01:36:00,pkn,9.60
2022-04-17T01:38:00,pkn,9.60
2022-04-17T01:39:00,pkn,3.60
2022-04-17T01:41:00,pkn,4.80
2022-04-17T01:43:00,pkn,1.20
2022-04-17T01:45:00,pkn,1.20
2022-04-17T01:46:00,pkn,1.20
2022-04-17T01:48:00,pkn,1.20
2022-04-17T01:49:00,pkn,1.20
2022-04-17T01:52:00,pkn,1.20
2022-04-17T01:54:00,pkn,1.20
2022-04-17T01:57:00,pkn,1.20
2022-04-17T02:00:00,pkn,1.20
2022-04-17T02:02:00,pkn,3.60
2022-04-17T02:03:00,pkn,4.80
2022-04-17T02:04:00,pkn,4.80
2022-04-17T02:06:00,pkn,10.80
2022-04-17T02:07:00,pkn,6.00
2022-04-17T02:08:00,pkn,6.00
2022-04-17T02:10:00,pkn,13.20
2022-04-17T02:12:00,pkn,9.60
2022-04-17T02:15:00,pkn,1.20
2022-04-17T02:17:00,pkn,1.20
2022-04-17T02:19:00,pkn,3.60
2022-04-17T02:21:00,pkn,8.40
2022-04-17T02:23:00,pkn,9.60
2022-04-17T02:25:00,pkn,9.60
2022-04-17T02:26:00,pkn,6.00
2022-04-17T02:28:00,pkn,8.40
2022-04-17T02:30:00,pkn,8.40
2022-04-17T02:31:00,pkn,6.00
2022-04-17T02:33:00,pkn,8.40
2022-04-17T02:35:00,pkn,8.40
2022-04-17T02:36:00,pkn,6.00
2022-04-17T02:38:00,pkn,7.20
2022-04-17T02:39:00,pkn,1.20
2022-04-17T02:40:00,pkn,8.40
2022-04-17T02:42:00,pkn,7.20
2022-04-17T02:43:00,pkn,1.20
2022-04-17T02:45:00,pkn,1.20
2022-04-17T02:47:00,pkn,1.20
2022-04-17T02:51:00,pkn,7.20
2022-04-17T02:53:00,pkn,8.40
2022-04-17T02:54:00,pkn,6.00
2022-04-17T02:55:00,pkn,3.60
2022-04-17T02:57:00,pkn,9.60
2022-04-17T02:59:00,pkn,9.60
2022-04-17T03:01:00,pkn,9.60
2022-04-17T03:03:00,pkn,8.40
2022-04-17T03:05:00,pkn,9.60
2022-04-17T03:07:00,pkn,9.60
2022-04-17T03:09:00,pkn,8.40
2022-04-17T03:11:00,pkn,9.60
2022-04-17T03:13:00,pkn,9.60
2022-04-17T03:14:00,pkn,3.60
2022-04-17T03:16:00,pkn,9.60
2022-04-17T03:17:00,pkn,2.40
2022-04-17T03:18:00,pkn,1.20
2022-04-17T03:21:00,pkn,1.20
2022-04-17T03:23:00,pkn,1.20
2022-04-17T03:26:00,pkn,1.20
2022-04-17T03:27:00,pkn,1.20
2022-04-17T03:31:00,pkn,1.20
2022-04-17T03:32:00,pkn,1.20
2022-04-17T03:33:00,pkn,1.20
2022-04-17T03:34:00,pkn,1.20
2022-04-17T03:35:00,pkn,8.40
2022-04-17T03:36:00,pkn,6.00
2022-04-17T03:38:00,pkn,8.40
2022-04-17T03:39:00,pkn,6.00
2022-04-17T03:40:00,pkn,3.60
2022-04-17T03:42:00,pkn,9.60
2022-04-17T03:44:00,pkn,9.60
2022-04-17T03:47:00,pkn,1.20
2022-04-17T03:49:00,pkn,1.20
2022-04-17T03:52:00,pkn,1.20
2022-04-17T03:58:00,pkn,2.40
2022-04-17T03:59:00,pkn,1.20
2022-04-17T04:01:00,pkn,1.20
2022-04-17T04:05:00,pkn,1.20
2022-04-17T04:07:00,pkn,6.00
2022-04-17T04:08:00,pkn,4.80
2022-04-17T04:10:00,pkn,8.40
2022-04-17T04:12:00,pkn,9.60
2022-04-17T04:13:00,pkn,6.00
2022-04-17T04:15:00,pkn,8.40
2022-04-17T04:17:00,pkn,4.80
2022-04-17T04:20:00,pkn,1.20
2022-04-17T04:22:00,pkn,1.20
2022-04-17T04:25:00,pkn,1.20
2022-04-17T04:27:00,pkn,1.20
2022-04-17T04:29:00,pkn,1.20
2022-04-17T04:33:00,pkn,1.20
2022-04-17T04:36:00,pkn,1.20
2022-04-17T04:39:00,pkn,1.20
2022-04-17T04:41:00,pkn,1.20
2022-04-17T04:43:00,pkn,2.40
2022-04-17T04:45:00,pkn,4.80
2022-04-17T04:47:00,pkn,9.60
2022-04-17T04:50:00,pkn,13.20
2022-04-17T04:51:00,pkn,6.00
2022-04-17T04:53:00,pkn,8.40
2022-04-17T04:54:00,pkn,1.20
2022-04-17T04:56:00,pkn,1.20
2022-04-17T05:00:00,pkn,2.40
2022-04-17T05:02:00,pkn,1.20
2022-04-17T05:05:00,pkn,1.20
2022-04-17T05:07:00,pkn,1.20
2022-04-17T05:10:00,pkn,1.20
2022-04-17T05:13:00,pkn,1.20
2022-04-17T05:15:00,pkn,1.20
2022-04-17T05:17:00,pkn,1.20
2022-04-17T05:19:00,pkn,1.20
2022-04-17T05:21:00,pkn,1.20
2022-04-17T05:23:00,pkn,1.20
2022-04-17T05:26:00,pkn,1.20
2022-04-17T05:29:00,pkn,1.20
2022-04-17T05:30:00,pkn,2.40
2022-04-17T05:32:00,pkn,9.60
2022-04-17T05:33:00,pkn,4.80
2022-04-17T05:35:00,pkn,8.40
2022-04-17T05:37:00,pkn,9.60
2022-04-17T05:38:00,pkn,3.60
2022-04-17T05:41:00,pkn,1.20
2022-04-17T05:44:00,pkn,1.20
2022-04-17T05:47:00,pkn,1.20
2022-04-17T05:49:00,pkn,1.20
2022-04-17T05:53:00,pkn,1.20
2022-04-17T05:55:00,pkn,1.20
2022-04-17T05:57:00,pkn,1.20
2022-04-17T05:59:00,pkn,1.20
2022-04-17T06:00:00,pkn,1.20
2022-04-17T06:02:00,pkn,1.20
2022-04-17T06:05:00,pkn,1.20
2022-04-17T06:09:00,pkn,1.20
2022-04-17T06:10:00,pkn,1.20
2022-04-17T06:14:00,pkn,1.20
2022-04-17T06:15:00,pkn,1.20
2022-04-17T06:18:00,pkn,1.20
2022-04-17T06:20:00,pkn,1.20
2022-04-17T06:22:00,pkn,2.40
2022-04-17T06:23:00,pkn,4.80
2022-04-17T06:25:00,pkn,8.40
2022-04-17T06:27:00,pkn,9.60
2022-04-17T06:29:00,pkn,8.40
2022-04-17T06:30:00,pkn,3.60
2022-04-17T06:31:00,pkn,1.20
2022-04-17T06:33:00,pkn,1.20
2022-04-17T06:35:00,pkn,1.20
2022-04-17T06:37:00,pkn,1.20
2022-04-17T06:39:00,pkn,1.20
2022-04-17T06:41:00,pkn,1.20
2022-04-17T06:45:00,pkn,1.20
2022-04-17T06:46:00,pkn,1.20
2022-04-17T06:50:00,pkn,1.20
2022-04-17T06:52:00,pkn,1.20
2022-04-17T06:54:00,pkn,1.20
2022-04-17T06:55:00,pkn,1.20
2022-04-17T06:59:00,pkn,1.20
2022-04-17T07:01:00,pkn,1.20
2022-04-17T07:03:00,pkn,1.20
2022-04-17T07:05:00,pkn,1.20
2022-04-17T07:07:00,pkn,1.20
2022-04-17T07:10:00,pkn,1.20
2022-04-17T07:12:00,pkn,1.20
2022-04-17T07:14:00,pkn,1.20
2022-04-17T07:18:00,pkn,1.20
2022-04-17T07:20:00,pkn,1.20
2022-04-17T07:22:00,pkn,1.20
2022-04-17T07:25:00,pkn,8.40
2022-04-17T07:26:00,pkn,3.60
2022-04-17T07:28:00,pkn,8.40
2022-04-17T07:30:00,pkn,8.40
2022-04-17T07:31:00,pkn,4.80
2022-04-17T07:32:00,pkn,1.20
2022-04-17T07:35:00,pkn,1.20
2022-04-17T07:37:00,pkn,1.20
2022-04-17T07:39:00,pkn,1.20
2022-04-17T07:41:00,pkn,1.20
2022-04-17T07:43:00,pkn,1.20
2022-04-17T07:45:00,pkn,1.20
2022-04-17T07:47:00,pkn,1.20
2022-04-17T07:49:00,pkn,1.20
2022-04-17T07:51:00,pkn,1.20
2022-04-17T07:54:00,pkn,1.20
2022-04-17T07:56:00,pkn,1.20
2022-04-17T08:00:00,pkn,1.20
2022-04-17T08:03:00,pkn,1.20
2022-04-17T08:04:00,pkn,1.20
2022-04-17T08:08:00,pkn,1.20
2022-04-17T08:10:00,pkn,1.20
2022-04-17T08:12:00,pkn,1.20
2022-04-17T08:14:00,pkn,1.20
2022-04-17T08:17:00,pkn,1.20
2022-04-17T08:20:00,pkn,1.20
2022-04-17T08:22:00,pkn,1.20
2022-04-17T08:24:00,pkn,1.20
2022-04-17T08:28:00,pkn,2.40
2022-04-17T08:31:00,pkn,1.20
2022-04-17T08:32:00,pkn,1.20
2022-04-17T08:34:00,pkn,1.20
2022-04-17T08:36:00,pkn,2.40
2022-04-17T08:37:00,pkn,3.60
2022-04-17T08:38:00,pkn,3.60
2022-04-17T08:39:00,pkn,6.00
2022-04-17T08:41:00,pkn,9.60
2022-04-17T08:43:00,pkn,8.40
2022-04-17T08:45:00,pkn,4.80
2022-04-17T08:47:00,pkn,1.20
2022-04-17T08:49:00,pkn,1.20
2022-04-17T08:51:00,pkn,1.20
2022-04-17T08:54:00,pkn,1.20
2022-04-17T08:57:00,pkn,1.20
2022-04-17T09:00:00,pkn,1.20
2022-04-17T09:02:00,pkn,1.20
2022-04-17T09:05:00,pkn,1.20
2022-04-17T09:07:00,pkn,1.20
2022-04-17T09:10:00,pkn,1.20
2022-04-17T09:12:00,pkn,1.20
2022-04-17T09:14:00,pkn,1.20
2022-04-17T09:16:00,pkn,1.20
2022-04-17T09:19:00,pkn,1.20
2022-04-17T09:21:00,pkn,1.20
2022-04-17T09:24:00,pkn,1.20
2022-04-17T09:26:00,pkn,1.20
2022-04-17T09:29:00,pkn,1.20
2022-04-17T09:31:00,pkn,2.40
2022-04-17T09:33:00,pkn,1.20
2022-04-17T09:35:00,pkn,2.40
2022-04-17T09:37:00,pkn,1.20
2022-04-17T09:39:00,pkn,1.20
2022-04-17T09:41:00,pkn,1.20
2022-04-17T09:43:00,pkn,6.00
2022-04-17T09:44:00,pkn,3.60
2022-04-17T09:46:00,pkn,9.60
2022-04-17T09:48:00,pkn,8.40
2022-04-17T09:50:00,pkn,8.40
2022-04-17T09:52:00,pkn,1.20
2022-04-17T09:55:00,pkn,1.20
2022-04-17T09:57:00,pkn,1.20
2022-04-17T10:00:00,pkn,1.20
2022-04-17T10:02:00,pkn,1.20
2022-04-17T10:05:00,pkn,1.20
2022-04-17T10:07:00,pkn,1.20
2022-04-17T10:09:00,pkn,1.20
2022-04-17T10:12:00,pkn,1.20
2022-04-17T10:15:00,pkn,1.20
2022-04-17T10:18:00,pkn,1.20
2022-04-17T10:21:00,pkn,1.20
2022-04-17T10:23:00,pkn,1.20
2022-04-17T10:25:00,pkn,1.20
2022-04-17T10:26:00,pkn,1.20
2022-04-17T10:30:00,pkn,1.20
2022-04-17T10:32:00,pkn,1.20
2022-04-17T10:33:00,pkn,1.20
2022-04-17T10:35:00,pkn,1.20
2022-04-17T10:38:00,pkn,1.20
2022-04-17T10:40:00,pkn,1.20
2022-04-17T10:42:00,pkn,1.20
2022-04-17T10:45:00,pkn,9.60
2022-04-17T10:47:00,pkn,9.60
2022-04-17T10:48:00,pkn,4.80
2022-04-17T10:50:00,pkn,8.40
2022-04-17T10:52:00,pkn,7.20
2022-04-17T10:54:00,pkn,1.20
2022-04-17T10:56:00,pkn,1.20
2022-04-17T10:59:00,pkn,1.20
2022-04-17T11:01:00,pkn,1.20
2022-04-17T11:03:00,pkn,1.20
2022-04-17T11:06:00,pkn,1.20
2022-04-17T11:09:00,pkn,1.20
2022-04-17T11:12:00,pkn,1.20
2022-04-17T11:14:00,pkn,1.20
2022-04-17T11:15:00,pkn,1.20
2022-04-17T11:17:00,pkn,8.40
2022-04-17T11:18:00,pkn,4.80
2022-04-17T11:20:00,pkn,8.40
2022-04-17T11:22:00,pkn,8.40
2022-04-17T11:23:00,pkn,4.80
2022-04-17T11:24:00,pkn,4.80
2022-04-17T11:26:00,pkn,7.20
2022-04-17T11:27:00,pkn,1.20
2022-04-17T11:28:00,pkn,8.40
2022-04-17T11:29:00,pkn,4.80
2022-04-17T11:31:00,pkn,9.60
2022-04-17T11:33:00,pkn,9.60
2022-04-17T11:35:00,pkn,7.20
2022-04-17T11:37:00,pkn,1.20
2022-04-17T11:40:00,pkn,1.20
2022-04-17T11:42:00,pkn,2.40
2022-04-17T11:45:00,pkn,1.20
2022-04-17T11:46:00,pkn,1.20
2022-04-17T11:50:00,pkn,9.60
2022-04-17T11:51:00,pkn,4.80
2022-04-17T11:52:00,pkn,3.60
2022-04-17T11:54:00,pkn,9.60
2022-04-17T11:56:00,pkn,9.60
2022-04-17T11:57:00,pkn,3.60
2022-04-17T11:59:00,pkn,9.60
2022-04-17T12:01:00,pkn,7.20
2022-04-17T12:05:00,pkn,1.20
2022-04-17T12:06:00,pkn,1.20
2022-04-17T12:10:00,pkn,1.20
2022-04-17T12:12:00,pkn,8.40
2022-04-17T12:14:00,pkn,9.60
2022-04-17T12:16:00,pkn,7.20
2022-04-17T12:18:00,pkn,9.60
2022-04-17T12:20:00,pkn,9.60
2022-04-17T12:22:00,pkn,8.40
2022-04-17T12:24:00,pkn,9.60
2022-04-17T12:25:00,pkn,4.80
2022-04-17T12:27:00,pkn,8.40
2022-04-17T12:29:00,pkn,9.60
2022-04-17T12:31:00,pkn,9.60
2022-04-17T12:33:00,pkn,9.60
2022-04-17T12:34:00,pkn,6.00
2022-04-17T12:36:00,pkn,9.60
2022-04-17T12:38:00,pkn,9.60
2022-04-17T12:40:00,pkn,9.60
2022-04-17T12:42:00,pkn,8.40
2022-04-17T12:43:00,pkn,4.80
2022-04-17T12:45:00,pkn,4.80
2022-04-17T12:47:00,pkn,1.20
2022-04-17T12:50:00,pkn,1.20
2022-04-17T12:54:00,pkn,1.20
2022-04-17T12:56:00,pkn,1.20
2022-04-17T12:57:00,pkn,1.20
2022-04-17T13:00:00,pkn,1.20
2022-04-17T13:02:00,pkn,1.20
2022-04-17T13:04:00,pkn,8.40
2022-04-17T13:06:00,pkn,9.60
2022-04-17T13:07:00,pkn,1.20
2022-04-17T13:08:00,pkn,8.40
2022-04-17T13:09:00,pkn,4.80
2022-04-17T13:10:00,pkn,3.60
2022-04-17T13:12:00,pkn,9.60
2022-04-17T13:14:00,pkn,9.60
2022-04-17T13:16:00,pkn,2.40
2022-04-17T13:19:00,pkn,1.20
2022-04-17T13:20:00,pkn,1.20
2022-04-17T13:23:00,pkn,1.20
2022-04-17T13:25:00,pkn,1.20
2022-04-17T13:27:00,pkn,1.20
2022-04-17T13:29:00,pkn,1.20
2022-04-17T13:31:00,pkn,1.20
2022-04-17T13:33:00,pkn,1.20
2022-04-17T13:35:00,pkn,1.20
2022-04-17T13:37:00,pkn,1.20
2022-04-17T13:38:00,pkn,1.20
2022-04-17T13:40:00,pkn,7.20
2022-04-17T13:41:00,pkn,6.00
2022-04-17T13:43:00,pkn,7.20
2022-04-17T13:45:00,pkn,9.60
2022-04-17T13:46:00,pkn,3.60
2022-04-17T13:47:00,pkn,1.20
2022-04-17T13:48:00,pkn,6.00
2022-04-17T13:51:00,pkn,1.20
2022-04-17T13:53:00,pkn,1.20
2022-04-17T13:57:00,pkn,1.20
2022-04-17T14:00:00,pkn,1.20
2022-04-17T14:02:00,pkn,1.20
2022-04-17T14:06:00,pkn,1.20
2022-04-17T14:08:00,pkn,1.20
2022-04-17T14:10:00,pkn,1.20
2022-04-17T14:12:00,pkn,1.20
2022-04-17T14:13:00,pkn,4.80
2022-04-17T14:15:00,pkn,8.40
2022-04-17T14:16:00,pkn,6.00
2022-04-17T14:17:00,pkn,1.20
2022-04-17T14:18:00,pkn,8.40
2022-04-17T14:20:00,pkn,8.40
2022-04-17T14:22:00,pkn,9.60
2022-04-17T14:24:00,pkn,8.40
2022-04-17T14:25:00,pkn,4.80
2022-04-17T14:27:00,pkn,8.40
2022-04-17T14:28:00,pkn,6.00
2022-04-17T14:30:00,pkn,7.20
2022-04-17T14:32:00,pkn,9.60
2022-04-17T14:33:00,pkn,3.60
2022-04-17T14:35:00,pkn,9.60
2022-04-17T14:37:00,pkn,9.60
2022-04-17T14:38:00,pkn,3.60
2022-04-17T14:40:00,pkn,9.60
2022-04-17T14:42:00,pkn,9.60
2022-04-17T14:44:00,pkn,7.20
2022-04-17T14:45:00,pkn,6.00
2022-04-17T14:47:00,pkn,9.60
2022-04-17T14:49:00,pkn,18.00
2022-04-17T14:50:00,pkn,8.40
2022-04-17T14:52:00,pkn,14.40
2022-04-17T14:53:00,pkn,7.20
2022-04-17T14:54:00,pkn,7.20
2022-04-17T14:56:00,pkn,14.40
2022-04-17T14:58:00,pkn,8.40
2022-04-17T15:00:00,pkn,4.80
2022-04-17T15:02:00,pkn,3.60
2022-04-17T15:04:00,pkn,6.00
2022-04-17T15:06:00,pkn,13.20
2022-04-17T15:08:00,pkn,10.80
2022-04-17T15:10:00,pkn,10.80
2022-04-17T15:12:00,pkn,12.00
2022-04-17T15:13:00,pkn,6.00
2022-04-17T15:15:00,pkn,9.60
2022-04-17T15:16:00,pkn,4.80
2022-04-17T15:18:00,pkn,10.80
2022-04-17T15:19:00,pkn,4.80
2022-04-17T15:21:00,pkn,9.60
2022-04-17T15:22:00,pkn,6.00
2022-04-17T15:24:00,pkn,10.80
2022-04-17T15:25:00,pkn,4.80
2022-04-17T15:26:00,pkn,4.80
2022-04-17T15:28:00,pkn,9.60
2022-04-17T15:29:00,pkn,1.20
2022-04-17T15:30:00,pkn,7.20
2022-04-17T15:31:00,pkn,6.00
2022-04-17T15:32:00,pkn,3.60
2022-04-17T15:34:00,pkn,10.80
2022-04-17T15:35:00,pkn,3.60
2022-04-17T15:37:00,pkn,3.60
2022-04-17T15:40:00,pkn,1.20
2022-04-17T15:41:00,pkn,1.20
2022-04-17T15:43:00,pkn,1.20
2022-04-17T15:45:00,pkn,1.20
2022-04-17T15:47:00,pkn,2.40
2022-04-17T15:48:00,pkn,3.60
2022-04-17T15:50:00,pkn,9.60
2022-04-17T15:52:00,pkn,9.60
2022-04-17T15:54:00,pkn,9.60
2022-04-17T15:55:00,pkn,4.80
2022-04-17T15:56:00,pkn,3.60
2022-04-17T15:58:00,pkn,9.60
2022-04-17T15:59:00,pkn,6.00
2022-04-17T16:01:00,pkn,8.40
2022-04-17T16:02:00,pkn,6.00
2022-04-17T16:03:00,pkn,3.60
2022-04-17T16:05:00,pkn,1.20
2022-04-17T16:07:00,pkn,1.20
2022-04-17T16:09:00,pkn,1.20
2022-04-17T16:10:00,pkn,1.20
2022-04-17T16:12:00,pkn,1.20
2022-04-17T16:14:00,pkn,2.40
2022-04-17T16:17:00,pkn,1.20
2022-04-17T16:18:00,pkn,4.80
2022-04-17T16:19:00,pkn,4.80
2022-04-17T16:20:00,pkn,3.60
2022-04-17T16:22:00,pkn,10.80
2022-04-17T16:24:00,pkn,9.60
2022-04-17T16:26:00,pkn,8.40
2022-04-17T16:27:00,pkn,6.00
2022-04-17T16:29:00,pkn,9.60
2022-04-17T16:30:00,pkn,3.60
2022-04-17T16:31:00,pkn,2.40
2022-04-17T16:33:00,pkn,1.20
2022-04-17T16:34:00,pkn,1.20
2022-04-17T16:37:00,pkn,1.20
2022-04-17T16:39:00,pkn,1.20
2022-04-17T16:41:00,pkn,1.20
2022-04-17T16:42:00,pkn,1.20
2022-04-17T16:45:00,pkn,1.20
2022-04-17T16:46:00,pkn,1.20
2022-04-17T16:49:00,pkn,3.60
2022-04-17T16:51:00,pkn,10.80
2022-04-17T16:52:00,pkn,3.60
2022-04-17T16:54:00,pkn,10.80
2022-04-17T16:56:00,pkn,9.60
2022-04-17T16:58:00,pkn,10.80
2022-04-17T16:59:00,pkn,3.60
2022-04-17T17:00:00,pkn,1.20
2022-04-17T17:01:00,pkn,1.20
2022-04-17T17:02:00,pkn,1.20
2022-04-17T17:03:00,pkn,1.20
2022-04-17T17:05:00,pkn,1.20
2022-04-17T17:07:00,pkn,2.40
2022-04-17T17:09:00,pkn,7.20
2022-04-17T17:10:00,pkn,6.00
2022-04-17T17:12:00,pkn,9.60
2022-04-17T17:14:00,pkn,8.40
2022-04-17T17:16:00,pkn,9.60
2022-04-17T17:18:00,pkn,9.60
2022-04-17T17:20:00,pkn,9.60
2022-04-17T17:22:00,pkn,8.40
2022-04-17T17:23:00,pkn,6.00
2022-04-17T17:25:00,pkn,8.40
2022-04-17T17:27:00,pkn,9.60
2022-04-17T17:28:00,pkn,4.80
2022-04-17T17:30:00,pkn,9.60
2022-04-17T17:32:00,pkn,9.60
2022-04-17T17:34:00,pkn,8.40
2022-04-17T17:35:00,pkn,4.80
2022-04-17T17:36:00,pkn,4.80
2022-04-17T17:38:00,pkn,9.60
2022-04-17T17:39:00,pkn,4.80
2022-04-17T17:41:00,pkn,9.60
2022-04-17T17:42:00,pkn,6.00
2022-04-17T17:44:00,pkn,15.60
2022-04-17T17:45:00,pkn,7.20
2022-04-17T17:46:00,pkn,8.40
2022-04-17T17:48:00,pkn,8.40
2022-04-17T17:50:00,pkn,6.00
2022-04-17T17:51:00,pkn,2.40
2022-04-17T17:53:00,pkn,6.00
2022-04-17T17:55:00,pkn,6.00
2022-04-17T17:56:00,pkn,1.20
2022-04-17T17:58:00,pkn,3.60
2022-04-17T18:00:00,pkn,1.20
2022-04-17T18:03:00,pkn,9.60
2022-04-17T18:04:00,pkn,4.80
2022-04-17T18:05:00,pkn,3.60
2022-04-17T18:07:00,pkn,9.60
2022-04-17T18:08:00,pkn,7.20
2022-04-17T18:10:00,pkn,8.40
2022-04-17T18:12:00,pkn,9.60
2022-04-17T18:13:00,pkn,3.60
2022-04-17T18:15:00,pkn,6.00
2022-04-17T18:17:00,pkn,1.20
2022-04-17T18:19:00,pkn,2.40
2022-04-17T18:21:00,pkn,1.20
2022-04-17T18:22:00,pkn,1.20
2022-04-17T18:24:00,pkn,3.60
2022-04-17T18:26:00,pkn,10.80
2022-04-17T18:27:00,pkn,4.80
2022-04-17T18:29:00,pkn,9.60
2022-04-17T18:31:00,pkn,9.60
2022-04-17T18:32:00,pkn,4.80
2022-04-17T18:33:00,pkn,4.80
2022-04-17T18:35:00,pkn,9.60
2022-04-17T18:37:00,pkn,10.80
2022-04-17T18:39:00,pkn,8.40
2022-04-17T18:41:00,pkn,10.80
2022-04-17T18:42:00,pkn,3.60
2022-04-17T18:44:00,pkn,10.80
2022-04-17T18:46:00,pkn,14.40
2022-04-17T18:47:00,pkn,7.20
2022-04-17T18:49:00,pkn,16.80
2022-04-17T18:51:00,pkn,14.40
2022-04-17T18:53:00,pkn,16.80
2022-04-17T18:54:00,pkn,6.00
2022-04-17T18:56:00,pkn,9.60
2022-04-17T18:57:00,pkn,6.00
2022-04-17T18:59:00,pkn,12.00
2022-04-17T19:00:00,pkn,4.80
2022-04-17T19:02:00,pkn,9.60
2022-04-17T19:03:00,pkn,4.80
2022-04-17T19:05:00,pkn,12.00
2022-04-17T19:06:00,pkn,4.80
2022-04-17T19:08:00,pkn,10.80
2022-04-17T19:10:00,pkn,10.80
2022-04-17T19:12:00,pkn,12.00
2022-04-17T19:14:00,pkn,10.80
2022-04-17T19:15:00,pkn,6.00
2022-04-17T19:17:00,pkn,12.00
2022-04-17T19:19:00,pkn,8.40
2022-04-17T19:20:00,pkn,2.40
2022-04-17T19:22:00,pkn,2.40
2022-04-17T19:24:00,pkn,1.20
2022-04-17T19:26:00,pkn,1.20
2022-04-17T19:27:00,pkn,1.20
2022-04-17T19:29:00,pkn,2.40
2022-04-17T19:32:00,pkn,6.00
2022-04-17T19:34:00,pkn,10.80
2022-04-17T19:36:00,pkn,12.00
2022-04-17T19:37:00,pkn,6.00
2022-04-17T19:39:00,pkn,10.80
2022-04-17T19:41:00,pkn,8.40
2022-04-17T19:43:00,pkn,10.80
2022-04-17T19:45:00,pkn,9.60
2022-04-17T19:47:00,pkn,10.80
2022-04-17T19:48:00,pkn,3.60
2022-04-17T19:50:00,pkn,7.20
2022-04-17T19:52:00,pkn,7.20
2022-04-17T19:53:00,pkn,3.60
2022-04-17T19:55:00,pkn,3.60
2022-04-17T19:56:00,pkn,1.20
2022-04-17T19:58:00,pkn,2.40
2022-04-17T20:00:00,pkn,4.80
2022-04-17T20:02:00,pkn,2.40
2022-04-17T20:03:00,pkn,7.20
2022-04-17T20:05:00,pkn,13.20
2022-04-17T20:06:00,pkn,4.80
2022-04-17T20:08:00,pkn,9.60
2022-04-17T20:09:00,pkn,4.80
2022-04-17T20:11:00,pkn,9.60
2022-04-17T20:13:00,pkn,10.80
2022-04-17T20:15:00,pkn,4.80
2022-04-17T20:17:00,pkn,2.40
2022-04-17T20:19:00,pkn,1.20
2022-04-17T20:20:00,pkn,1.20
2022-04-17T20:22:00,pkn,1.20
2022-04-17T20:24:00,pkn,2.40
2022-04-17T20:27:00,pkn,2.40
2022-04-17T20:28:00,pkn,1.20
2022-04-17T20:30:00,pkn,1.20
2022-04-17T20:32:00,pkn,2.40
2022-04-17T20:34:00,pkn,4.80
2022-04-17T20:36:00,pkn,10.80
2022-04-17T20:38:00,pkn,10.80
2022-04-17T20:40:00,pkn,8.40
2022-04-17T20:42:00,pkn,10.80
2022-04-17T20:44:00,pkn,9.60
2022-04-17T20:46:00,pkn,3.60
2022-04-17T20:49:00,pkn,2.40
2022-04-17T20:50:00,pkn,1.20
2022-04-17T20:52:00,pkn,1.20
2022-04-17T20:54:00,pkn,1.20
2022-04-17T20:55:00,pkn,1.20
2022-04-17T20:57:00,pkn,2.40
2022-04-17T20:59:00,pkn,1.20
2022-04-17T21:00:00,pkn,1.20
2022-04-17T21:02:00,pkn,1.20
2022-04-17T21:03:00,pkn,1.20
2022-04-17T21:05:00,pkn,2.40
2022-04-17T21:06:00,pkn,3.60
2022-04-17T21:08:00,pkn,9.60
2022-04-17T21:10:00,pkn,8.40
2022-04-17T21:12:00,pkn,10.80
2022-04-17T21:14:00,pkn,9.60
2022-04-17T21:16:00,pkn,9.60
2022-04-17T21:17:00,pkn,1.20
2022-04-17T21:19:00,pkn,1.20
2022-04-17T21:20:00,pkn,1.20
2022-04-17T21:22:00,pkn,2.40
2022-04-17T21:24:00,pkn,1.20
2022-04-17T21:26:00,pkn,2.40
2022-04-17T21:28:00,pkn,2.40
2022-04-17T21:30:00,pkn,1.20
2022-04-17T21:31:00,pkn,1.20
2022-04-17T21:33:00,pkn,1.20
2022-04-17T21:35:00,pkn,2.40
2022-04-17T21:37:00,pkn,2.40
2022-04-17T21:39:00,pkn,2.40
2022-04-17T21:41:00,pkn,9.60
2022-04-17T21:43:00,pkn,9.60
2022-04-17T21:45:00,pkn,10.80
2022-04-17T21:47:00,pkn,10.80
2022-04-17T21:49:00,pkn,7.20
2022-04-17T21:51:00,pkn,2.40
2022-04-17T21:52:00,pkn,1.20
2022-04-17T21:54:00,pkn,2.40
2022-04-17T21:55:00,pkn,1.20
2022-04-17T21:57:00,pkn,1.20
2022-04-17T21:59:00,pkn,2.40
2022-04-17T22:01:00,pkn,2.40
2022-04-17T22:03:00,pkn,2.40
2022-04-17T22:05:00,pkn,2.40
2022-04-17T22:07:00,pkn,1.20
2022-04-17T22:09:00,pkn,2.40
2022-04-17T22:10:00,pkn,1.20
2022-04-17T22:12:00,pkn,2.40
2022-04-17T22:14:00,pkn,3.60
2022-04-17T22:16:00,pkn,9.60
2022-04-17T22:18:00,pkn,9.60
2022-04-17T22:20:00,pkn,10.80
2022-04-17T22:21:00,pkn,3.60
2022-04-17T22:23:00,pkn,10.80
2022-04-17T22:25:00,pkn,4.80
2022-04-17T22:27:00,pkn,1.20
2022-04-17T22:28:00,pkn,1.20
2022-04-17T22:30:00,pkn,2.40
2022-04-17T22:32:00,pkn,1.20
2022-04-17T22:33:00,pkn,1.20
2022-04-17T22:35:00,pkn,2.40
2022-04-17T22:37:00,pkn,1.20
2022-04-17T22:39:00,pkn,2.40
2022-04-17T22:41:00,pkn,1.20
2022-04-17T22:43:00,pkn,2.40
2022-04-17T22:45:00,pkn,2.40
2022-04-17T22:47:00,pkn,1.20
2022-04-17T22:48:00,pkn,1.20
2022-04-17T22:50:00,pkn,2.40
2022-04-17T22:53:00,pkn,3.60
2022-04-17T22:55:00,pkn,10.80
2022-04-17T22:57:00,pkn,9.60
2022-04-17T22:59:00,pkn,10.80
2022-04-17T23:00:00,pkn,4.80
2022-04-17T23:02:00,pkn,8.40
2022-04-17T23:03:00,pkn,1.20
2022-04-17T23:05:00,pkn,2.40
2022-04-17T23:06:00,pkn,1.20
2022-04-17T23:07:00,pkn,1.20
2022-04-17T23:09:00,pkn,1.20
2022-04-17T23:10:00,pkn,1.20
2022-04-17T23:12:00,pkn,2.40
2022-04-17T23:14:00,pkn,1.20
2022-04-17T23:15:00,pkn,1.20
2022-04-17T23:16:00,pkn,1.20
2022-04-17T23:18:00,pkn,1.20
2022-04-17T23:20:00,pkn,2.40
2022-04-17T23:22:00,pkn,1.20
2022-04-17T23:24:00,pkn,2.40
2022-04-17T23:27:00,pkn,2.40
2022-04-17T23:29:00,pkn,1.20
2022-04-17T23:30:00,pkn,1.20
2022-04-17T23:31:00,pkn,1.20
2022-04-17T23:32:00,pkn,1.20
2022-04-17T23:34:00,pkn,4.80
2022-04-17T23:36:00,pkn,14.40
2022-04-17T23:37:00,pkn,2.40
2022-04-17T23:38:00,pkn,8.40
2022-04-17T23:39:00,pkn,6.00
2022-04-17T23:40:00,pkn,10.80
2022-04-17T23:42:00,pkn,12.00
2022-04-17T23:44:00,pkn,4.80
2022-04-17T23:46:00,pkn,2.40
2022-04-17T23:48:00,pkn,2.40
2022-04-17T23:50:00,pkn,2.40
2022-04-17T23:52:00,pkn,1.20
2022-04-17T23:54:00,pkn,2.40
2022-04-17T23:56:00,pkn,2.40
2022-04-17T23:57:00,pkn,1.20
2022-04-17T23:59:00,pkn,4.80
